星链-33916 (STARLINK-33916)

导读

STARLINK-33916是美国SpaceX星链互联网卫星星座的一员,于2025年5月2日发射。星链计划旨在构建覆盖全球的低轨卫星互联网星座,为偏远地区、海上、航空等场景提供宽带网络服务。作为星座扩容的新卫星,它进一步完善了星链星座的全球覆盖密度,提升网络服务的带宽与稳定性,助力SpaceX推进全球卫星互联网组网建设。

基本信息
目录编号:
63792
目录名称:
STARLINK-33916
国际标识:
2025-091T
轨道中心:
EARTH
卫星名称:
星链-33916
卫星全名:
星链-33916 (STARLINK-33916)
卫星状态:
在轨 (已飞行408 天)
发射日期:
2025-05-02 UTC
国别 :
美国 (US)
星等 :
--
轨道信息
数据来源 国际轨道数据
星历时间: 2026-06-11T07:03:35+0800
3天前
查看轨道信息
半长轴: 6861.146km
偏心率: 0.0000909
轨道倾角: 42.995°
近地点辐角 260.031°
升交点赤经 246.055°
平近点角 100.044°
近地点: 482.385km
远地点: 483.633km
周期: 94.266分钟
每日圈数: 15.275936
详细信息
固有亮度:
5
最大亮度:
2.5
卫星平台:
Starlink V1.0
覆盖范围:
全球
运营商:
太空探索技术公司
运营商所在国:
美国
制造商(研发单位):
太空探索技术公司
制造商所在国:
美国
使用方式:
暂无
卫星简介
Starlink 计划是 SpaceX 推出的全球卫星互联网项目,通过发射低轨道卫星,为全球尤其是偏远地区提供高速、低延迟的互联网服务。自 2019 年起,Starlink 已部署数千颗卫星,旨在缩小全球数字鸿沟,推动互联网普及。该项目还为军事、航空等行业提供通信支持,带来广泛经济效益。
2D轨道图
3D轨道图
轨道高度分析图
轨道倾角分析图
轨道综合分析图
查看轨道综合分析图